This demonstration page uses our WeatherBlox Daily Observations layout. Learn more.

Left ArrowRight Arrow

41.55636, -103.73856

Hourly Observations for March 19, 2021

Temp ( °F °C ) Dew Point ( °F °C ) Humidity (%) Winds ( mph kmh ) Pressure ( in mb ) Visibility ( mi km ) Precip ( " mm )
12:58 am 00:58 Clear 27 -2.9 21 -5.9 80 80 SSW 23 37 30.34 1028 10 16 0.00 0.00
1:58 am 01:58 Clear 26 -3.3 20 -6.7 78 78 SSW 22 35 30.34 1028 10 16 0.00 0.00
2:58 am 02:58 Clear 24 -4.7 18 -7.7 80 80 SSW 22 35 30.34 1027 10 16 0.00 0.00
3:58 am 03:58 Clear 24 -4.4 19 -7.5 79 79 SSW 22 35 30.33 1027 10 16 0.00 0.00
4:58 am 04:58 Clear 24 -4.7 19 -7 84 84 SW 22 35 30.32 1027 10 16 0.00 0.00
5:58 am 05:58 Clear 25 -4.1 20 -6.7 82 82 SSW 25 41 30.31 1026 10 16 0.00 0.00
6:58 am 06:58 Clear 24 -4.5 19 -7.3 81 81 SW 23 37 30.32 1027 10 16 0.00 0.00
7:58 am 07:58 Sunny 25 -4.1 19 -7.3 79 79 SW 21 33 30.33 1027 10 16 0.00 0.00
8:58 am 08:58 Sunny 27 -2.9 20 -6.7 75 75 SW 18 30 30.33 1027 10 16 0.00 0.00
9:58 am 09:58 Sunny 33 0.3 23 -5.2 67 67 SW 21 33 30.30 1026 10 16 0.00 0.00
10:58 am 10:58 Sunny 35 1.4 27 -2.9 73 73 SW 16 26 30.27 1025 10 16 0.00 0.00
11:58 am 11:58 Sunny 35 1.7 28 -2.4 75 75 SSW 18 30 30.27 1025 10 16 0.00 0.00
12:58 pm 12:58 Sunny 36 2.4 29 -1.6 75 75 SW 18 30 30.24 1024 10 16 0.00 0.00
1:58 pm 13:58 Sunny 37 2.7 29 -1.7 73 73 SW 17 28 30.22 1024 10 16 0.00 0.00
2:58 pm 14:58 Sunny 38 3.3 29 -1.7 70 70 SW 18 30 30.24 1024 10 16 0.00 0.00
3:56 pm 15:56 Sunny 38 3.3 29 -1.8 70 70 SW 17 28 30.23 1024 10 16 0.00 0.00
4:58 pm 16:58 Sunny 37 2.6 29 -1.4 75 75 SW 17 28 30.23 1024 10 16 0.00 0.00
5:58 pm 17:58 Sunny 35 1.8 29 -1.6 78 78 SSW 15 24 30.22 1023 10 16 0.00 0.00
6:58 pm 18:58 Sunny 36 2 28 -2.3 73 73 SSW 16 26 30.21 1023 10 16 0.00 0.00
7:58 pm 19:58 Clear 39 3.7 27 -2.6 64 64 SW 22 35 30.19 1022 10 16 0.00 0.00
8:58 pm 20:58 Clear 34 0.9 27 -2.9 76 76 SSW 18 30 30.22 1023 10 16 0.00 0.00
9:58 pm 21:58 Clear 34 1.3 28 -2.3 77 77 SSW 21 33 30.19 1022 10 16 0.00 0.00
10:58 pm 22:58 Clear 35 1.5 28 -2.5 75 75 SSW 20 31 30.15 1021 10 16 0.00 0.00
11:58 pm 23:58 Clear 33 0.4 27 -2.6 81 81 SSW 20 31 30.15 1021 9 14 0.00 0.00

Powered by AerisWeather